Regional Weather Roundup
Issued by NWS Sioux Falls, SD

Home | Current Version | Previous Version | Graphics & Text | Print | Product List | Glossary On
Versions: 1 2 3 4 5 6 7 8 9 10 11 12 13 14 15 16 17 18 19 20 21 22 23 24 25 26 27 28 29 30 31 32 33 34 35 36 37 38 39 40 41 42 43 44 45 46 47 48 49 50
000
ASUS43 KFSD 291410
RWRFSD

WEATHER ROUNDUP FOR SE SOUTH DAKOTA/SW MINNESOTA/NW IOWA
NATIONAL WEATHER SERVICE SIOUX FALLS SD
800 AM CST THU JAN 29 2015

NOTE: "FAIR" INDICATES FEW OR NO CLOUDS BELOW 12,000 FEET WITH NO
SIGNIFICANT WEATHER AND OR OBSTRUCTIONS TO VISIBILITY.


SDZ038>040-050-052>070-291500-
SOUTHEAST SOUTH DAKOTA

CITY           SKY/WX    TMP DP  RH WIND       PRES   REMARKS
CHAMBERLAIN    CLOUDY    34  27  75 NW14      30.39R WCI  24
HURON          CLOUDY    32  26  78 N14       30.36R WCI  22
MADISON        CLOUDY    28  28 100 N18G29    30.29R WCI  16
MITCHELL         N/A     33  27  78 NW16      30.37R WCI  23
SIOUX FALLS    CLOUDY    30  24  78 NW21G29   30.29R WCI  17
WINNER         CLOUDY    36  26  67 NW16      30.40R
YANKTON        CLOUDY    34  27  75 NW24G31   30.35R WCI  21
$$

MNZ071-072-080-081-089-090-097-098-291500-
SOUTHWEST MINNESOTA

CITY           SKY/WX    TMP DP  RH WIND       PRES   REMARKS
FAIRMONT       CLOUDY    30  23  74 NW30G38   30.15R WCI  15
JACKSON        CLOUDY    30  25  80 N25G41    30.18R WCI  16
LUVERNE        CLOUDY    32  27  80 N17       30.27R WCI  21
MARSHALL       CLOUDY    27  19  74 N25G37    30.27R WCI  11
MONTEVIDEO     CLOUDY    27  23  86 N21G29    30.28R WCI  13
PIPESTONE      CLOUDY    28  25  86 N21G28    30.24R WCI  15
REDWOOD FALLS  CLOUDY    28  23  81 NW22G37   30.23R WCI  14
TRACY          CLOUDY    29  26  87 NW20G25   30.24R WCI  16
WINDOM         CLOUDY    28  25  86 NW32G38   30.20R WCI  12
WORTHINGTON    CLOUDY    28  21  74 N21G29    30.23R WCI  15
$$

IAZ001>003-012>014-020>022-031-032-NEZ013-014-SDZ071-291500-
NORTHWEST IOWA

CITY           SKY/WX    TMP DP  RH WIND       PRES   REMARKS
CHEROKEE       CLOUDY    32  28  86 N21G32    30.24R WCI  20
DENISON        CLOUDY    34  28  80 N21G30    30.21R WCI  22
ESTHERVILLE    CLOUDY    29  25  85 NW28G41   30.18R WCI  14
LE MARS        CLOUDY    32  27  80 N20G29    30.29R WCI  20
ORANGE CITY    CLOUDY    32  27  80 N21G30    30.26R WCI  20
SHELDON        CLOUDY    30  28  93 N23G33    30.24R WCI  17
SIOUX CITY     CLOUDY    34  27  75 N28G38    30.27R WCI  21
SPENCER        CLOUDY    31  25  78 NW28G36   30.21R WCI  17
STORM LAKE     CLOUDY    32  28  86 N25G33    30.21R WCI  19
$$

ABBREVIATIONS USED IN REMARKS
   TC - TEMPERATURE IN CELSIUS
  WCI - WIND CHILL INDEX
   HX - HEAT INDEX
  VSB - VISIBILITY



USA.gov is the U.S. government's official web portal to all federal, state and local government web resources and services.